This is the latest recevied weather packets stored in our database for station/object 9M4RLD-3. If no packets are shown the sender has not sent any weather packets the latest 10 day(s).
| Time | Temp. | Humidity | Pressure | Rain* | Wind** | Luminosity | Snow |
|---|---|---|---|---|---|---|---|
| 1777792268 | 27.78° C | 100% | 1031.5 hPa | - | - | - | - |
| 1777791068 | 28.33° C | 100% | 1031.8 hPa | - | - | - | - |
| 1777789868 | 27.78° C | 100% | 1032.2 hPa | - | - | - | - |
| 1777788668 | 27.78° C | 100% | 1032.5 hPa | - | - | - | - |
| 1777787469 | 27.78° C | 100% | 1033 hPa | - | - | - | - |
| 1777786268 | 27.22° C | 100% | 1033.4 hPa | - | - | - | - |
| 1777785068 | 27.78° C | 100% | 1033.8 hPa | - | - | - | - |
| 1777783868 | 26.11° C | 100% | 1033.8 hPa | - | - | - | - |
| 1777782668 | 25.56° C | 100% | 1033.9 hPa | - | - | - | - |
| 1777781468 | 25.56° C | 100% | 1034.1 hPa | - | - | - | - |
| 1777780268 | 26.11° C | 100% | 1034.4 hPa | - | - | - | - |
| 1777779068 | 27.22° C | 100% | 1034.3 hPa | - | - | - | - |
| 1777777868 | 28.89° C | 100% | 1034.4 hPa | - | - | - | - |
| 1777776668 | 28.89° C | 100% | 1034.5 hPa | - | - | - | - |
| 1777775468 | 26.67° C | 100% | 1034.2 hPa | - | - | - | - |
| 1777774320 | 26.11° C | 100% | 1034.1 hPa | - | - | - | - |
| 1777774268 | 26.11° C | 100% | 1034.1 hPa | - | - | - | - |
| 1777773068 | 26.67° C | 100% | 1034 hPa | - | - | - | - |
| 1777771868 | 27.22° C | 100% | 1033.7 hPa | - | - | - | - |
| 1777770668 | 26.11° C | 100% | 1033.7 hPa | - | - | - | - |
| 1777769467 | 26.11° C | 100% | 1033.4 hPa | - | - | - | - |
| 1777768267 | 25° C | 100% | 1032.9 hPa | - | - | - | - |
| 1777767067 | 24.44° C | 100% | 1032.7 hPa | - | - | - | - |
| 1777765867 | 24.44° C | 100% | 1032.4 hPa | - | - | - | - |
| 1777764667 | 22.78° C | 100% | 1032.2 hPa | - | - | - | - |
* Rain since midnight (hover to see other rain measurements)
** Current wind speed in m/s (hover to see current wind gust speed)